[[{"header":{"parameterUnit":"m.s-1","parameterCategory":1,"la1":30.2991,"la2":30.254,"lo1":-89.0895,"lo2":-89.0444,"dy":0.0017,"dx":0.0017,"nx":28,"ny":28,"refTime":"2024-05-07T21:00:00:Z","depth":0,"parameterNumber":2,"parameterNumberName":"U-component_of_WINDS"},"data":[0,0,0,0,0,0,0,0,0,0,0,0,0,0,0,0,0,0,0,0,0,0,0,0,0,0,0,0,0,0,0,0,0,0,0,0,0,0,0,0,0,0,0,0,0,0,0,0,0,0,0,0,0,0,0,0,0,0,-0.5769,-0.577,0,-0.5783,-0.5783,-0.5783,-0.5804,-0.5805,-0.5805,-0.5805,-0.5818,-0.5818,-0.5818,0,0,0,0,0,0,0,0,0,0,0,0,0,-0.5761,-0.5761,-0.5769,-0.577,-0.577,-0.5783,-0.5783,-0.5783,-0.5804,-0.5805,-0.5805,-0.5805,-0.5818,-0.5818,-0.5818,0,0,0,0,0,0,0,0,0,0,0,0,0,-0.5769,-0.5761,-0.5769,-0.5782,-0.5783,-0.5783,-0.5783,-0.5783,-0.5804,-0.5805,-0.5805,-0.5806,-0.5818,-0.5818,-0.5818,-0.5806,0,0,-0.5818,-0.5818,0,0,0,0,0,0,0,0,-0.5768,-0.5769,-0.578,-0.5781,-0.5782,-0.5792,-0.5785,-0.5791,-0.5804,-0.5796,-0.5805,-0.5806,-0.5809,-0.581,-0.5811,-0.5807,-0.5807,-0.5818,-0.5818,-0.5818,-0.5818,0,0,0,0,0,0,0,-0.5768,-0.5769,-0.5775,-0.578,-0.5781,-0.5787,-0.5788,-0.5786,-0.5799,-0.5797,-0.5798,-0.58,-0.581,-0.5811,-0.5811,-0.5807,-0.5818,-0.5818,-0.5818,-0.5817,-0.5795,-0.5794,0,0,0,0,0,0,-0.5766,-0.5768,-0.5774,-0.5775,-0.5777,-0.5786,-0.5788,-0.5789,-0.5799,-0.5801,-0.5799,-0.5801,-0.581,-0.5811,-0.5812,-0.5799,-0.5818,-0.5817,-0.5817,-0.5795,-0.5794,-0.5794,0,0,0,0,0,0,-0.5765,-0.5766,-0.5774,-0.5772,-0.5773,-0.5786,-0.5786,-0.5789,-0.579,-0.5801,-0.5803,-0.5798,-0.5811,-0.5812,-0.5807,-0.58,-0.5817,-0.5817,-0.5796,-0.5795,-0.5794,-0.5773,0,0,0,0,0,0,-0.5765,-0.5766,-0.5761,-0.5772,-0.5773,-0.5769,-0.5786,-0.5788,-0.579,-0.5792,-0.58,-0.5802,-0.5811,-0.5807,-0.5807,-0.58,-0.5817,-0.5797,-0.5795,-0.5794,-0.5774,-0.5772,-0.5769,0,0,0,0,0,-0.5765,-0.5755,-0.5761,-0.5762,-0.5768,-0.5769,-0.577,-0.5781,-0.5789,-0.5785,-0.5792,-0.5802,-0.5801,-0.5807,-0.5807,-0.5799,-0.5797,-0.5796,-0.5794,-0.5776,-0.5772,-0.5769,0,0,0,0,0,0,-0.5743,-0.5756,-0.5764,-0.5757,-0.5762,-0.5772,-0.5767,-0.5777,-0.5779,-0.5781,-0.5794,-0.5796,-0.579,-0.5794,-0.5801,-0.5789,-0.58,-0.5799,-0.5786,-0.5783,-0.578,-0.5779,-0.5817,0,0,0,0,0,-0.5737,-0.5737,-0.5748,-0.5741,-0.5743,-0.5755,-0.5755,-0.5764,-0.5769,-0.5771,-0.5778,-0.5783,-0.5783,-0.5783,-0.5784,-0.5775,-0.5778,-0.577,-0.5767,-0.5765,-0.5764,-0.576,-0.5757,-0.5789,-0.5789,-0.5789,0,0,-0.5725,-0.5733,-0.5732,-0.5737,-0.5742,-0.5741,-0.5756,-0.5755,-0.5754,-0.5771,-0.5767,-0.5772,-0.5778,-0.5772,-0.5769,-0.5775,-0.5755,-0.5764,-0.5762,-0.5762,-0.5758,-0.5755,-0.5752,-0.5789,-0.5789,-0.5789,0,0,-0.5704,-0.5709,-0.5704,-0.5709,-0.5716,-0.5724,-0.5722,-0.5732,-0.5736,-0.5733,-0.5746,-0.5745,-0.5746,-0.575,-0.5752,-0.5732,-0.5741,-0.5732,-0.5718,-0.5713,-0.5711,-0.5709,-0.5702,-0.5699,-0.5731,-0.573,-0.573,0,-0.5688,-0.5688,-0.57,-0.5698,-0.57,-0.5715,-0.571,-0.5714,-0.5721,-0.5722,-0.5729,-0.573,-0.5735,-0.573,-0.5725,-0.5726,-0.5725,-0.5731,-0.571,-0.5708,-0.5706,-0.57,-0.5697,-0.5729,-0.5729,-0.573,-0.573,0,-0.5668,-0.5668,-0.5663,-0.5669,-0.5671,-0.5667,-0.5679,-0.5679,-0.5687,-0.5694,-0.5691,-0.5697,-0.57,-0.57,-0.5707,-0.5696,-0.5699,-0.5708,-0.572,-0.5702,-0.5696,-0.5694,-0.5728,-0.5728,-0.5728,-0.5729,0,0,-0.5633,-0.5647,-0.5645,-0.5649,-0.5658,-0.5657,-0.5654,-0.5658,-0.5658,-0.5662,-0.566,-0.566,-0.5668,-0.5671,-0.5679,-0.5675,-0.566,-0.5685,-0.5685,-0.568,-0.5647,-0.564,-0.5637,-0.5666,-0.5665,-0.5665,-0.5647,0,-0.5613,-0.5609,-0.562,-0.5613,-0.5613,-0.5628,-0.5625,-0.5631,-0.5637,-0.5638,-0.5645,-0.5645,-0.5656,-0.5658,-0.5655,-0.5662,-0.5653,-0.5664,-0.5664,-0.5664,-0.5662,-0.5634,-0.5627,-0.561,-0.5644,-0.5644,-0.5644,0,-0.559,-0.5593,-0.5586,-0.5596,-0.5597,-0.5594,-0.5598,-0.5599,-0.5605,-0.561,-0.5613,-0.5623,-0.562,-0.5632,-0.5629,-0.5635,-0.5636,-0.564,-0.5639,-0.564,-0.5653,-0.5634,-0.5604,-0.5602,-0.564,-0.5641,-0.5641,0,-0.5565,-0.5568,-0.5564,-0.5567,-0.5578,-0.5576,-0.5581,-0.5588,-0.5589,-0.5593,-0.5594,-0.5597,-0.5598,-0.56,-0.5611,-0.5618,-0.5606,-0.5619,-0.5611,-0.561,-0.5607,-0.5607,-0.5577,-0.5608,-0.5608,-0.5608,-0.5608,0,-0.5542,-0.5537,-0.5554,-0.5551,-0.5546,-0.5559,-0.5554,-0.556,-0.5566,-0.5565,-0.5578,-0.5577,-0.5591,-0.5591,-0.5599,-0.5595,-0.5596,-0.56,-0.5602,-0.5599,-0.5598,-0.5599,-0.5601,-0.5607,-0.5607,-0.5607,-0.5607,0,-0.5513,-0.5524,-0.5521,-0.5533,-0.5535,-0.5531,-0.5541,-0.5539,-0.5547,-0.5545,-0.5546,-0.5558,-0.5559,-0.5569,-0.5572,-0.5578,-0.5571,-0.5575,-0.5569,-0.557,-0.5562,-0.5562,-0.5531,-0.5528,-0.556,-0.556,-0.556,0,-0.5498,-0.5495,-0.5506,-0.5507,-0.5511,-0.5511,-0.5513,-0.5526,-0.5527,-0.5534,-0.5531,-0.5533,-0.5536,-0.5537,-0.5545,-0.5548,-0.5553,-0.5542,-0.5553,-0.555,-0.5553,-0.5553,-0.5553,-0.5539,-0.5539,-0.5538,-0.5538,0,-0.547,-0.5476,-0.5478,-0.5482,-0.5483,-0.5487,-0.5491,-0.5491,-0.5505,-0.5506,-0.5507,-0.5509,-0.5512,-0.5514,-0.5519,-0.5523,-0.5533,-0.5534,-0.5533,-0.5529,-0.5526,-0.5528,-0.5562,-0.5535,-0.5535,-0.5536,-0.5536,-0.5536,-0.5448,-0.5446,-0.5453,-0.5455,-0.546,-0.5464,-0.5463,-0.5471,-0.5472,-0.5476,-0.5484,-0.5484,-0.5491,-0.5497,-0.5501,-0.5501,-0.5507,-0.5504,-0.5504,-0.5503,-0.5501,-0.5526,-0.5502,-0.5502,-0.5502,-0.5502,-0.5502,0,-0.5421,-0.5426,-0.5428,-0.5434,-0.5436,-0.5445,-0.545,-0.5451,-0.5451,-0.5457,-0.5459,-0.5461,-0.5463,-0.5471,-0.5474,-0.5473,-0.5477,-0.5473,-0.5474,-0.5475,-0.5496,-0.5497,-0.547,-0.547,-0.547,-0.547,-0.547,-0.547,-0.5407,-0.5404,-0.541,-0.541,-0.5416,-0.5416,-0.5419,-0.5422,-0.5427,-0.5428,-0.543,-0.5436,-0.5443,-0.5446,-0.5449,-0.5451,-0.5452,-0.5446,-0.545,-0.547,-0.5473,-0.5476,-0.5477,-0.5446,-0.5446,-0.5429,-0.5429,-0.5428]},{"header":{"parameterUnit":"m.s-1","parameterCategory":1,"la1":30.2991,"la2":30.254,"lo1":-89.0895,"lo2":-89.0444,"dy":0.0017,"dx":0.0017,"nx":28,"ny":28,"refTime":"2024-05-07T21:00:00:Z","depth":0,"parameterNumber":3,"parameterNumberName":"V-component_of_WINDS"},"data":[0,0,0,0,0,0,0,0,0,0,0,0,0,0,0,0,0,0,0,0,0,0,0,0,0,0,0,0,0,0,0,0,0,0,0,0,0,0,0,0,0,0,0,0,0,0,0,0,0,0,0,0,0,0,0,0,0,0,5.3776,5.3777,0,5.3854,5.3855,5.3856,5.3862,5.3861,5.386,5.3859,5.3932,5.3934,5.3937,0,0,0,0,0,0,0,0,0,0,0,0,0,5.3629,5.3631,5.3776,5.3777,5.3778,5.3854,5.3855,5.3856,5.3862,5.3861,5.386,5.3859,5.3931,5.3934,5.3937,0,0,0,0,0,0,0,0,0,0,0,0,0,5.3698,5.3632,5.3776,5.3791,5.3793,5.3853,5.3855,5.3856,5.3862,5.3861,5.386,5.3858,5.393,5.3934,5.3938,5.3987,0,0,5.395,5.3952,0,0,0,0,0,0,0,0,5.3694,5.3703,5.3788,5.379,5.3792,5.3847,5.3829,5.39,5.3862,5.3836,5.3859,5.3858,5.3904,5.391,5.3927,5.3991,5.3994,5.395,5.3953,5.3955,5.3956,0,0,0,0,0,0,0,5.3689,5.37,5.3807,5.3789,5.3792,5.3791,5.38,5.3843,5.3875,5.3838,5.3838,5.3848,5.3905,5.3923,5.3929,5.3995,5.395,5.3954,5.3956,5.3958,5.4105,5.4106,0,0,0,0,0,0,5.3682,5.3696,5.3804,5.3809,5.3739,5.3795,5.3805,5.3831,5.3875,5.3881,5.3849,5.3848,5.3917,5.3924,5.3931,5.3994,5.3955,5.3958,5.3961,5.4103,5.4105,5.4107,0,0,0,0,0,0,5.3679,5.3692,5.3801,5.3753,5.3767,5.3799,5.3828,5.3833,5.3851,5.3884,5.3889,5.3862,5.3916,5.3926,5.3974,5.3997,5.396,5.3964,5.4102,5.4104,5.4106,5.4119,0,0,0,0,0,0,5.3675,5.3691,5.3711,5.3753,5.3769,5.3844,5.3829,5.3835,5.3859,5.3858,5.3897,5.3902,5.3916,5.3968,5.3978,5.4001,5.3967,5.41,5.4103,5.4105,5.4116,5.4121,5.4125,0,0,0,0,0,5.367,5.3709,5.3712,5.3725,5.3796,5.3846,5.3855,5.3871,5.3861,5.3881,5.3902,5.3901,5.3993,5.3973,5.3985,5.4009,5.4098,5.4102,5.4105,5.4114,5.412,5.4125,0,0,0,0,0,0,5.3666,5.3715,5.3719,5.3774,5.3806,5.3847,5.3872,5.3877,5.391,5.3908,5.3926,5.3934,5.3983,5.4001,5.3978,5.4061,5.4044,5.405,5.4047,5.4053,5.4057,5.4052,5.397,0,0,0,0,0,5.3672,5.3711,5.3751,5.3795,5.3812,5.3839,5.3861,5.3872,5.3905,5.3918,5.3943,5.3973,5.4009,5.4032,5.4066,5.4119,5.4128,5.4142,5.4146,5.4149,5.4154,5.4185,5.4192,5.4118,5.4118,5.4118,0,0,5.3684,5.3716,5.3738,5.3795,5.3822,5.386,5.385,5.389,5.3919,5.3923,5.3972,5.3991,5.4026,5.4078,5.4101,5.4094,5.4177,5.4154,5.4156,5.4159,5.4189,5.4196,5.4202,5.412,5.412,5.4119,0,0,5.3726,5.3753,5.3795,5.3822,5.3863,5.3882,5.3892,5.3933,5.3947,5.3996,5.4001,5.4034,5.4095,5.412,5.4141,5.4195,5.4196,5.4206,5.4228,5.4258,5.4264,5.4269,5.4289,5.4296,5.421,5.421,5.421,0,5.3734,5.3795,5.3815,5.3856,5.3882,5.3891,5.3932,5.3957,5.4006,5.4022,5.4014,5.4092,5.4116,5.4175,5.4188,5.4204,5.4216,5.4201,5.4262,5.4267,5.4272,5.4292,5.4299,5.4211,5.4211,5.4211,5.4211,0,5.3804,5.3846,5.3874,5.3925,5.3953,5.3994,5.4019,5.4045,5.4054,5.4073,5.4124,5.4153,5.4195,5.4209,5.4217,5.427,5.4264,5.4258,5.4242,5.428,5.4299,5.4306,5.4213,5.4212,5.4212,5.4212,0,0,5.3844,5.3909,5.3918,5.3943,5.399,5.4021,5.4062,5.4106,5.4128,5.4162,5.4197,5.425,5.4246,5.427,5.428,5.4306,5.4349,5.4298,5.4299,5.4307,5.441,5.4415,5.4423,5.435,5.4352,5.4353,5.4408,0,5.3892,5.397,5.399,5.4055,5.4094,5.4104,5.414,5.4172,5.4191,5.4226,5.4246,5.4284,5.4275,5.429,5.4317,5.4338,5.437,5.4335,5.4382,5.4384,5.4374,5.4433,5.4438,5.4488,5.4415,5.4416,5.4417,0,5.3958,5.3997,5.4067,5.4111,5.4128,5.4161,5.4204,5.4237,5.4273,5.4285,5.4314,5.4322,5.4365,5.4347,5.4406,5.4382,5.4402,5.4416,5.4418,5.4424,5.4403,5.4441,5.4504,5.4512,5.4429,5.4428,5.4427,0,5.3982,5.4052,5.4103,5.4123,5.4176,5.4199,5.4221,5.4257,5.4282,5.4319,5.4336,5.4375,5.4397,5.4427,5.4446,5.4431,5.4505,5.4488,5.4516,5.4515,5.453,5.4529,5.4599,5.4543,5.4542,5.4542,5.4542,0,5.4034,5.4076,5.4115,5.4147,5.4195,5.4217,5.4263,5.4286,5.4318,5.4353,5.4363,5.4395,5.4418,5.4454,5.4468,5.4516,5.4525,5.4536,5.4539,5.4536,5.4534,5.455,5.4547,5.4544,5.4544,5.4544,5.4543,0,5.4069,5.4096,5.4154,5.42,5.4212,5.4246,5.4285,5.4315,5.4336,5.438,5.4392,5.4423,5.4466,5.4488,5.454,5.455,5.4604,5.4604,5.4592,5.4594,5.4621,5.4619,5.4704,5.4716,5.465,5.4651,5.4651,0,5.41,5.4134,5.4185,5.4211,5.4235,5.4276,5.4303,5.4327,5.4354,5.44,5.4425,5.4469,5.4505,5.4572,5.4598,5.4638,5.4641,5.4668,5.4647,5.4643,5.4643,5.4641,5.4645,5.4672,5.4672,5.4673,5.4673,0,5.4154,5.4167,5.4207,5.4253,5.4287,5.4323,5.4359,5.4378,5.4408,5.4438,5.4483,5.4512,5.4567,5.461,5.4653,5.4674,5.4679,5.468,5.4689,5.4685,5.4678,5.4683,5.4603,5.4678,5.4677,5.4677,5.4677,5.4676,5.4189,5.422,5.4262,5.4307,5.4338,5.4371,5.4403,5.4429,5.4468,5.4517,5.4528,5.4576,5.4612,5.4671,5.4693,5.473,5.4725,5.4737,5.474,5.4743,5.4745,5.4672,5.4738,5.4738,5.4738,5.4738,5.4737,0,5.4245,5.4273,5.4314,5.4366,5.4402,5.4406,5.4446,5.4475,5.4518,5.4553,5.4589,5.4642,5.4684,5.4715,5.4758,5.4782,5.4785,5.4793,5.4791,5.4796,5.4747,5.4736,5.4789,5.4789,5.4789,5.4789,5.4789,5.4789,5.4278,5.4332,5.435,5.4418,5.4445,5.4495,5.4518,5.4549,5.4578,5.4637,5.4673,5.4694,5.4727,5.4774,5.4813,5.482,5.4836,5.4844,5.4852,5.4805,5.48,5.4794,5.4784,5.4847,5.4847,5.4898,5.4899,5.4899]}]]